• In Uzbekistan
  • List of Countries
  • For 7 days
  • Water Temperature
  • Satellite Maps
  • Weather Map
  • Weather Widgets
  • user-avatar
    Login

    Hourly Weather Kortkeros

    Today, 23 June, Saturday

    Time Temperature Precipitation Wind Pressure Humidity
    00:00 +14°C° 0 mm 1 mps 748 mmHg 90%
    01:00 +13°C° 0 mm 1 mps 748 mmHg 90%
    02:00 +13°C° 0 mm 1 mps 749 mmHg 91%
    03:00 +13°C° 0 mm 1 mps 749 mmHg 91%
    04:00 +15°C° 0 mm 1 mps 749 mmHg 83%
    05:00 +18°C° 0 mm 1 mps 749 mmHg 75%
    06:00 +19°C° 0 mm 1 mps 749 mmHg 67%
    07:00 +21°C° 0 mm 1 mps 749 mmHg 59%
    08:00 +23°C° 0 mm 2 mps 749 mmHg 52%
    09:00 +24°C° 0 mm 2 mps 749 mmHg 43%
    10:00 +25°C° 0 mm 2 mps 749 mmHg 40%
    11:00 +27°C° 0 mm 2 mps 749 mmHg 36%
    12:00 +28°C° 0 mm 2 mps 749 mmHg 33%
    13:00 +28°C° 0 mm 2 mps 749 mmHg 32%
    14:00 +29°C° 0 mm 2 mps 749 mmHg 31%
    15:00 +29°C° 0 mm 2 mps 749 mmHg 31%
    16:00 +29°C° 0 mm 1 mps 749 mmHg 35%
    17:00 +28°C° 0 mm 1 mps 749 mmHg 39%
    18:00 +28°C° 0 mm 1 mps 749 mmHg 43%
    19:00 +26°C° 0 mm 1 mps 749 mmHg 50%
    20:00 +23°C° 0 mm 1 mps 749 mmHg 58%
    21:00 +21°C° 0 mm 1 mps 749 mmHg 65%
    22:00 +20°C° 0 mm 1 mps 750 mmHg 68%
    23:00 +19°C° 0 mm 1 mps 750 mmHg 70%

    Tomorrow, 24 June, Sunday

    Time Temperature Precipitation Wind Pressure Humidity
    00:00 +16°C° 0 mm 0 mps 750 mmHg 73%
    01:00 +16°C° 0 mm 0 mps 750 mmHg 75%
    02:00 +18°C° 0 mm 1 mps 751 mmHg 77%
    03:00 +18°C° 0 mm 1 mps 751 mmHg 78%
    04:00 +20°C° 0 mm 1 mps 751 mmHg 74%
    05:00 +20°C° 0 mm 0 mps 751 mmHg 70%
    06:00 +22°C° 0 mm 0 mps 752 mmHg 66%
    07:00 +25°C° 0 mm 1 mps 752 mmHg 60%
    08:00 +27°C° 0 mm 1 mps 752 mmHg 55%
    09:00 +29°C° 0 mm 1 mps 752 mmHg 50%
    10:00 +29°C° 0 mm 1 mps 752 mmHg 47%
    11:00 +30°C° 0 mm 1 mps 752 mmHg 44%
    12:00 +30°C° 0 mm 1 mps 752 mmHg 42%
    13:00 +31°C° 0 mm 1 mps 752 mmHg 39%
    14:00 +31°C° 0 mm 1 mps 752 mmHg 37%
    15:00 +32°C° 0 mm 1 mps 752 mmHg 34%
    16:00 +31°C° 0 mm 1 mps 752 mmHg 36%
    17:00 +31°C° 0 mm 1 mps 752 mmHg 39%
    18:00 +31°C° 0 mm 1 mps 752 mmHg 41%
    19:00 +28°C° 0 mm 1 mps 752 mmHg 47%
    20:00 +26°C° 0 mm 1 mps 752 mmHg 52%
    21:00 +23°C° 0 mm 1 mps 752 mmHg 58%
    22:00 +22°C° 0 mm 1 mps 752 mmHg 59%
    23:00 +21°C° 0 mm 1 mps 753 mmHg 61%

    Day after tomorrow, 25 June, Monday

    Time Temperature Precipitation Wind Pressure Humidity
    00:00 +18°C° 0 mm 0 mps 753 mmHg 62%
    01:00 +18°C° 0 mm 0 mps 753 mmHg 63%
    02:00 +18°C° 0 mm 0 mps 753 mmHg 64%
    03:00 +17°C° 0 mm 0 mps 753 mmHg 64%
    04:00 +20°C° 0 mm 0 mps 753 mmHg 59%
    05:00 +22°C° 0 mm 0 mps 753 mmHg 54%
    06:00 +24°C° 0 mm 0 mps 753 mmHg 49%
    07:00 +26°C° 0 mm 0 mps 753 mmHg 44%
    08:00 +28°C° 0 mm 0 mps 753 mmHg 39%
    09:00 +30°C° 0 mm 0 mps 753 mmHg 34%
    10:00 +33°C° 0 mm 1 mps 753 mmHg 33%
    11:00 +34°C° 0 mm 1 mps 753 mmHg 31%
    12:00 +35°C° 0 mm 1 mps 753 mmHg 29%
    13:00 +35°C° 0 mm 1 mps 753 mmHg 29%
    14:00 +35°C° 0 mm 1 mps 753 mmHg 30%
    15:00 +36°C° 0 mm 2 mps 753 mmHg 30%
    16:00 +34°C° 0 mm 1 mps 753 mmHg 35%
    17:00 +33°C° 0 mm 1 mps 753 mmHg 40%
    18:00 +32°C° 0 mm 1 mps 753 mmHg 45%
    19:00 +30°C° 0 mm 1 mps 753 mmHg 52%
    20:00 +28°C° 0 mm 1 mps 753 mmHg 59%
    21:00 +26°C° 0 mm 1 mps 753 mmHg 66%
    22:00 +25°C° 0.6 mm 1 mps 753 mmHg 72%
    23:00 +24°C° 0.6 mm 1 mps 753 mmHg 79%

    26 June, Tuesday

    Time Temperature Precipitation Wind Pressure Humidity
    00:00 +23°C° 0.6 mm 1 mps 753 mmHg 85%
    01:00 +23°C° 0.4 mm 1 mps 753 mmHg 87%
    02:00 +23°C° 0.4 mm 1 mps 754 mmHg 89%
    03:00 +22°C° 0.4 mm 1 mps 754 mmHg 91%
    04:00 +23°C° 0.5 mm 1 mps 754 mmHg 88%
    05:00 +24°C° 0.5 mm 1 mps 754 mmHg 86%
    06:00 +25°C° 0.5 mm 1 mps 754 mmHg 84%
    07:00 +27°C° 0.7 mm 1 mps 754 mmHg 75%
    08:00 +28°C° 0.7 mm 1 mps 754 mmHg 66%
    09:00 +30°C° 0.7 mm 1 mps 754 mmHg 58%
    10:00 +31°C° 0 mm 1 mps 754 mmHg 51%
    11:00 +32°C° 0 mm 1 mps 754 mmHg 44%
    12:00 +34°C° 0 mm 1 mps 754 mmHg 38%
    13:00 +33°C° 0 mm 1 mps 754 mmHg 38%
    14:00 +33°C° 0 mm 1 mps 754 mmHg 39%
    15:00 +34°C° 0 mm 2 mps 754 mmHg 39%
    16:00 +32°C° 0 mm 1 mps 754 mmHg 42%
    17:00 +31°C° 0 mm 1 mps 755 mmHg 45%
    18:00 +31°C° 0 mm 1 mps 755 mmHg 49%
    19:00 +29°C° 0 mm 1 mps 755 mmHg 55%
    20:00 +27°C° 0 mm 1 mps 755 mmHg 61%
    21:00 +25°C° 0 mm 1 mps 755 mmHg 68%
    22:00 +24°C° 0.1 mm 1 mps 755 mmHg 71%
    23:00 +23°C° 0.1 mm 1 mps 755 mmHg 75%

    27 June, Wednesday

    Time Temperature Precipitation Wind Pressure Humidity
    00:00 +23°C° 0.1 mm 1 mps 755 mmHg 78%
    01:00 +22°C° 0.7 mm 1 mps 755 mmHg 82%
    02:00 +22°C° 0.7 mm 1 mps 755 mmHg 87%
    03:00 +21°C° 0.7 mm 1 mps 755 mmHg 91%
    04:00 +22°C° 0.2 mm 1 mps 755 mmHg 89%
    05:00 +23°C° 0.2 mm 1 mps 756 mmHg 87%
    06:00 +23°C° 0.2 mm 1 mps 756 mmHg 86%
    07:00 +24°C° 0.9 mm 1 mps 756 mmHg 82%
    08:00 +25°C° 0.9 mm 2 mps 756 mmHg 79%
    09:00 +26°C° 0.9 mm 2 mps 755 mmHg 75%
    10:00 +27°C° 0.7 mm 2 mps 755 mmHg 68%
    11:00 +27°C° 0.7 mm 2 mps 755 mmHg 61%
    12:00 +28°C° 0.7 mm 2 mps 755 mmHg 54%
    13:00 +29°C° 0 mm 2 mps 755 mmHg 49%
    14:00 +29°C° 0 mm 2 mps 755 mmHg 43%
    15:00 +30°C° 0 mm 2 mps 755 mmHg 38%
    16:00 +30°C° 0 mm 2 mps 755 mmHg 40%
    17:00 +29°C° 0 mm 2 mps 755 mmHg 42%
    18:00 +29°C° 0 mm 1 mps 755 mmHg 44%
    19:00 +27°C° 0 mm 1 mps 755 mmHg 50%
    20:00 +24°C° 0 mm 1 mps 755 mmHg 56%
    21:00 +22°C° 0 mm 1 mps 755 mmHg 61%
    22:00 +21°C° 0 mm 1 mps 755 mmHg 63%
    23:00 +20°C° 0 mm 1 mps 755 mmHg 65%

    28 June, Thursday

    Time Temperature Precipitation Wind Pressure Humidity
    00:00 +20°C° 0 mm 1 mps 755 mmHg 67%
    01:00 +19°C° 0 mm 1 mps 755 mmHg 69%
    02:00 +19°C° 0 mm 1 mps 755 mmHg 70%
    03:00 +18°C° 0 mm 1 mps 755 mmHg 71%
    04:00 +20°C° 0 mm 1 mps 755 mmHg 67%
    05:00 +21°C° 0 mm 1 mps 755 mmHg 63%
    06:00 +22°C° 0 mm 1 mps 755 mmHg 59%
    07:00 +23°C° 0 mm 2 mps 755 mmHg 55%
    08:00 +24°C° 0 mm 2 mps 755 mmHg 52%
    09:00 +25°C° 0 mm 3 mps 755 mmHg 48%
    10:00 +26°C° 0 mm 3 mps 755 mmHg 45%
    11:00 +26°C° 0 mm 3 mps 755 mmHg 42%
    12:00 +27°C° 0 mm 4 mps 754 mmHg 39%
    13:00 +26°C° 0 mm 4 mps 755 mmHg 43%
    14:00 +25°C° 0 mm 4 mps 755 mmHg 47%
    15:00 +23°C° 0 mm 4 mps 755 mmHg 50%
    16:00 +22°C° 0.1 mm 3 mps 755 mmHg 52%
    17:00 +22°C° 0.1 mm 3 mps 755 mmHg 53%
    18:00 +21°C° 0.1 mm 3 mps 755 mmHg 55%
    19:00 +20°C° 0 mm 3 mps 755 mmHg 56%
    20:00 +19°C° 0 mm 2 mps 756 mmHg 57%
    21:00 +17°C° 0 mm 2 mps 756 mmHg 59%
    22:00 +17°C° 0 mm 2 mps 756 mmHg 57%
    23:00 +16°C° 0 mm 3 mps 756 mmHg 56%
    Show more